Wetbulb
46.44 46.63 46.53 46.62 46.60 46.28 38.93 29.49 24.31 36.08 35.93 24.18 16.94 12.44 25.88 32.06 28.60 30.68 28.22 28.13 26.43 24.20 24.97 23.13 23.01 22.86 25.23 31.33 31.04 25.54 30.77 27.87 16.64 22.59 29.74 35.32 31.66 28.56 26.88 23.42 22.41 21.63 12.76 21.91
46.45 46.68 46.38 46.57 46.61 44.09 33.79 26.87 29.16 35.83 33.76 13.66 12.84 25.44 27.18 28.41 27.51 27.38 27.50 26.41 27.41 27.03 23.88 17.55 23.89 24.77 30.82 31.63 30.03 27.02 30.05 24.28 17.51 19.62 24.40 30.13 25.76 28.50 29.38 30.50 28.73 24.79 19.55 22.97
46.63 46.34 46.28 45.97 46.22 44.25 33.70 25.80 20.10 27.91 28.19 26.37 24.38 24.26 25.24 25.55 30.34 27.93 28.93 27.88 28.38 26.02 24.18 26.16 22.01 24.65 28.69 31.09 30.98 35.34 32.75 21.72 20.77 16.79 19.88 24.09 23.13 28.14 31.92 29.71 24.30 25.33 24.42 26.34
46.02 45.88 45.90 45.84 45.72 44.04 32.86 24.87 19.31 26.96 15.85 20.67 24.84 25.70 26.07 25.11 25.14 28.27 28.45 26.36 26.57 23.64 15.63 22.60 22.74 25.26 26.21 29.31 32.30 31.31 28.03 19.83 23.69 25.30 26.07 26.86 27.35 26.71 28.41 27.10 30.00 26.30 28.47 28.59
45.49 45.44 45.60 45.46 45.62 42.55 30.77 24.21 24.89 25.96 25.82 28.20 25.90 24.31 21.15 25.19 26.45 26.72 25.03 24.76 26.28 25.48 16.91 19.60 19.54 22.52 24.91 24.72 28.63 26.97 27.51 20.51 24.21 21.53 26.09 24.87 25.76 27.49 27.81 27.86 28.44 31.33 31.48 28.31
46.07 46.05 45.88 45.69 44.85 40.91 31.07 29.51 30.25 25.96 22.78 24.76 21.58 21.92 26.16 26.87 28.63 28.44 29.27 27.62 26.06 23.86 26.13 27.75 29.16 30.03 29.60 29.02 26.28 24.87 25.09 22.45 20.13 15.85 23.56 23.56 20.56 26.52 28.08 27.42 29.42 28.52 23.91 27.94
45.90 45.97 45.95 45.43 44.48 40.73 34.33 31.72 28.95 20.51 15.70 22.75 24.94 26.93 27.40 27.16 28.22 26.88 29.30 29.18 26.44 29.95 33.83 32.03 29.51 27.89 28.47 28.50 27.73 28.03 21.98 22.52 20.79 16.90 19.79 6.08 25.29 32.45 32.23 29.36 29.26 30.79 30.46 30.95
45.92 45.89 45.82 45.55 45.26 44.47 36.13 34.72 29.43 20.57 17.43 25.47 25.93 26.74 27.01 28.14 28.82 27.64 27.91 29.67 31.85 32.88 29.23 23.70 23.20 21.84 24.07 25.30 27.39 26.57 26.87 21.92 14.00 10.69 15.03 21.03 26.28 28.84 29.27 28.35 26.40 32.39 29.77 31.01
45.28 45.33 45.36 45.49 44.91 43.66 36.27 34.19 34.76 26.56 20.79 20.22 29.09 23.98 27.59 21.88 22.51 24.15 28.39 31.78 32.70 29.51 24.56 19.99 17.03 17.04 22.37 21.81 25.26 28.80 27.01 24.10 13.86 12.62 9.76 13.38 21.54 30.50 34.11 34.01 21.18 32.05 32.18 29.63
44.64 44.86 45.16 45.49 45.31 43.76 36.91 34.67 36.30 28.81 19.73 26.48 28.41 23.14 24.44 28.28 25.79 20.27 25.38 28.38 28.28 28.23 17.58 14.47 15.86 16.37 24.47 18.44 20.55 22.70 22.77 19.05 8.67 8.19 11.96 20.27 27.92 31.83 34.58 20.58 22.68 32.16 31.42 30.57
43.34 43.31 43.44 43.95 44.69 43.77 37.07 32.92 35.24 31.99 22.61 27.40 30.89 31.92 29.08 27.77 25.51 19.93 25.56 21.87 23.17 23.14 14.30 9.36 11.83 16.90 17.21 18.43 21.31 23.00 22.21 17.35 15.27 13.38 4.33 6.23 30.76 31.14 24.10 27.04 33.86 31.67 30.99 30.06
42.86 42.97 42.92 43.24 43.51 43.56 38.79 32.18 36.02 38.72 30.77 28.14 32.05 33.23 34.77 33.40 32.33 28.88 26.76 25.37 21.70 21.38 14.00 10.71 23.71 16.89 15.10 19.63 12.11 25.08 17.39 22.44 22.29 19.98 14.05 26.03 33.79 32.18 34.64 35.52 30.38 29.88 29.93 30.34
42.39 42.38 42.52 42.77 43.08 43.45 38.48 32.00 32.75 32.87 32.11 27.76 27.42 28.75 33.73 36.75 35.67 35.85 25.84 27.31 30.38 24.96 27.95 18.71 24.78 21.18 21.26 13.06 15.83 17.86 26.00 29.40 23.63 22.94 26.17 28.19 30.52 33.46 31.85 31.29 29.20 29.76 29.61 28.59
41.97 41.79 41.86 42.00 42.39 42.87 39.50 31.20 32.77 32.37 28.38 21.63 25.31 34.49 32.00 36.13 36.34 35.50 35.23 32.88 32.13 31.03 28.55 25.84 24.29 22.53 26.74 22.92 23.46 22.58 23.76 26.10 26.32 25.20 27.18 29.50 31.10 32.73 33.36 30.04 30.24 29.91 29.65 28.93
41.58 41.48 41.51 41.29 41.61 42.33 36.22 33.16 33.10 34.44 28.55 18.02 22.83 30.05 33.94 35.99 35.96 35.79 35.36 33.60 30.14 28.12 24.68 23.15 23.35 24.96 24.68 25.02 23.67 21.37 25.11 24.21 22.31 20.62 28.18 28.43 28.61 30.76 32.17 29.63 29.42 28.99 28.29 28.27
41.32 41.38 41.25 40.94 41.44 38.89 32.46 26.00 33.32 35.48 37.53 25.05 19.29 28.00 30.71 33.27 34.29 33.66 33.31 33.03 29.86 29.12 27.69 25.60 25.63 28.43 26.59 22.78 20.72 26.11 28.37 29.51 27.98 26.96 29.30 30.33 30.58 31.22 31.18 29.42 28.90 29.01 28.37 27.42
40.80 40.74 41.11 41.20 41.77 33.47 29.27 27.36 33.26 38.66 34.27 25.06 21.68 22.53 29.98 33.05 32.64 31.30 30.96 31.40 29.48 28.96 28.55 27.46 25.40 25.96 28.15 23.48 21.49 27.43 29.49 30.31 30.73 31.61 29.95 27.30 28.37 27.33 29.66 29.86 29.40 30.79 28.86 28.94
40.18 40.46 40.91 41.27 42.11 38.07 28.79 30.75 40.63 36.76 30.56 29.09 19.61 22.88 25.94 31.67 25.95 26.23 29.14 26.42 27.19 27.02 26.88 26.04 24.76 26.49 25.13 22.11 27.05 27.79 29.74 30.50 30.75 31.14 30.37 29.01 29.08 29.39 28.74 28.90 28.32 27.12 27.13 27.77
39.99 40.63 41.34 36.14 31.88 25.92 31.13 42.14 40.27 34.25 29.21 18.80 22.83 21.27 16.02 29.12 27.11 25.10 26.55 27.22 22.21 27.91 25.03 25.45 26.51 24.11 22.05 26.94 27.76 27.26 29.74 29.56 29.76 31.62 29.86 29.19 28.34 28.81 28.67 27.80 27.57 26.88 27.07 27.71
40.29 35.78 30.18 20.68 31.00 40.47 39.95 33.73 31.30 31.88 31.50 26.50 22.94 24.82 20.34 26.98 23.84 22.59 23.66 22.07 22.28 19.69 24.70 26.52 23.86 24.45 28.00 28.49 29.16 29.75 31.16 31.62 32.19 28.86 27.96 28.57 28.47 28.56 28.46 27.84 27.83 27.57 27.67 28.18
32.17 26.99 26.53 32.27 39.66 33.04 27.83 20.89 23.63 28.50 25.85 26.01 26.10 24.81 21.40 26.66 22.66 22.82 23.17 18.13 21.13 16.22 21.43 21.78 21.52 18.70 24.88 29.72 28.94 30.61 30.61 30.87 30.39 30.34 29.96 29.83 29.31 29.27 28.66 28.65 29.42 29.04 28.67 27.97
32.05 31.77 33.57 34.80 29.06 24.91 24.33 20.09 26.69 23.96 22.41 25.68 24.58 26.10 26.23 25.45 26.91 22.97 22.21 22.44 22.75 18.61 22.82 16.59 12.55 22.03 28.41 29.32 29.53 29.81 30.79 31.39 31.66 31.75 31.30 31.04 31.00 30.34 29.74 29.11 28.81 28.84 28.89 26.61
34.06 29.84 27.90 24.44 21.17 19.54 19.53 14.46 21.67 16.55 24.44 25.29 25.92 24.14 26.27 25.91 26.02 22.38 23.40 17.46 16.27 24.17 11.87 13.49 19.14 23.64 29.53 29.16 29.80 29.96 30.65 31.02 31.01 30.62 30.38 29.85 29.94 29.85 30.22 28.55 28.58 27.46 27.16 26.31
26.51 22.94 10.11 16.68 12.16 19.37 21.02 22.30 22.50 24.98 24.38 24.34 25.47 22.51 23.39 23.30 20.96 20.05 16.42 22.56 23.46 13.28 7.78 16.86 20.68 25.84 29.52 30.07 30.50 30.21 29.59 29.51 29.37 28.86 28.91 27.87 27.08 25.26 23.53 20.56 20.47 19.51 23.19 23.00
26.43 27.00 17.40 18.75 23.04 23.41 23.94 24.29 24.91 25.97 26.81 25.55 23.81 24.16 24.87 21.33 18.69 23.43 22.03 18.14 12.94 16.00 15.70 17.25 24.39 28.15 29.76 29.75 30.22 29.87 29.40 26.01 26.57 28.21 28.03 23.52 22.26 22.81 20.34 21.28 23.63 25.01 19.57 19.09
27.48 27.54 23.50 23.79 21.27 16.83 17.22 22.46 23.81 27.92 26.12 24.97 24.96 23.13 17.52 19.13 21.54 21.28 16.16 19.17 13.50 15.76 21.63 24.24 24.72 29.08 30.09 30.10 30.40 30.18 29.56 28.53 27.94 28.11 27.83 26.67 22.60 21.55 25.05 25.63 24.46 19.73 20.45 18.21
26.92 24.88 24.92 23.34 23.76 22.12 24.05 25.48 26.22 28.74 26.44 19.91 23.03 16.23 18.41 21.26 16.04 15.01 22.19 16.73 17.89 22.75 24.03 25.67 28.15 29.28 29.77 29.73 30.10 28.43 28.87 29.01 28.06 27.22 26.56 25.62 26.09 26.23 25.65 24.80 25.58 26.98 27.14 21.59
MSLP
1012.28 1012.77 1013.14 1013.77 1014.26 1014.86 1015.73 1017.13 1018.95 1018.90 1018.30 1019.87 1022.31 1022.72 1022.27 1021.25 1020.62 1020.31 1020.25 1020.40 1020.45 1020.29 1020.24 1019.95 1019.49 1018.49 1017.82 1016.88 1016.51 1015.56 1015.04 1013.44 1011.95 1010.02 1008.42 1007.97 1007.65 1006.66 1005.83 1003.98 1002.44 1002.00 1002.84 1005.01
1012.48 1012.89 1013.30 1013.77 1014.21 1014.84 1015.81 1018.39 1019.60 1019.13 1019.07 1021.26 1022.83 1022.64 1021.95 1021.22 1020.72 1020.40 1020.29 1020.34 1020.38 1020.36 1020.46 1020.40 1019.08 1018.01 1017.07 1016.73 1016.36 1015.86 1015.52 1014.28 1012.86 1009.82 1008.66 1007.97 1007.41 1006.25 1005.44 1003.70 1002.81 1002.10 1003.04 1005.11
1012.40 1012.96 1013.46 1013.79 1014.22 1014.93 1016.03 1018.89 1020.50 1020.73 1020.93 1021.83 1022.38 1022.55 1021.98 1021.49 1020.82 1020.60 1020.52 1020.54 1020.39 1020.54 1020.37 1020.22 1019.08 1018.08 1017.16 1016.49 1015.91 1015.36 1015.33 1015.04 1014.53 1013.38 1012.25 1010.71 1008.99 1007.02 1005.73 1004.55 1003.74 1003.52 1003.66 1004.85
1012.74 1013.15 1013.58 1014.06 1014.46 1015.04 1016.10 1019.25 1021.19 1021.15 1022.37 1022.63 1022.55 1022.47 1022.27 1021.88 1021.37 1020.98 1020.73 1020.73 1020.74 1021.14 1021.03 1019.90 1019.03 1018.16 1017.19 1016.34 1015.40 1015.42 1015.62 1015.06 1014.04 1012.87 1011.82 1010.94 1009.73 1008.52 1007.18 1005.97 1005.21 1004.73 1005.28 1005.77
1013.10 1013.59 1014.10 1014.41 1014.70 1014.93 1016.57 1019.03 1020.53 1021.12 1022.12 1022.17 1022.17 1022.63 1022.47 1022.22 1021.64 1021.51 1021.04 1021.02 1020.69 1020.95 1021.26 1020.34 1019.27 1018.91 1017.99 1017.21 1015.52 1015.87 1015.70 1015.25 1014.06 1012.53 1011.09 1010.59 1010.47 1009.68 1008.80 1007.60 1006.84 1006.21 1006.38 1007.28
1013.55 1014.09 1014.27 1014.53 1014.71 1015.17 1017.14 1018.45 1018.97 1019.75 1022.38 1022.35 1022.60 1022.55 1022.16 1022.08 1021.84 1021.33 1021.14 1020.99 1020.83 1020.36 1019.81 1019.25 1018.60 1018.29 1017.85 1017.40 1017.27 1016.31 1016.07 1015.77 1015.14 1013.66 1011.88 1010.53 1010.36 1010.89 1010.63 1010.08 1009.36 1008.96 1009.09 1010.13
1014.00 1014.24 1014.52 1014.62 1014.82 1014.99 1016.12 1017.75 1018.70 1020.69 1022.87 1022.54 1022.23 1022.01 1022.01 1022.00 1021.93 1021.82 1020.95 1020.89 1020.87 1019.46 1018.98 1018.35 1017.44 1017.39 1017.14 1017.03 1016.58 1016.35 1016.39 1016.51 1016.25 1015.29 1013.54 1013.37 1013.62 1012.56 1012.18 1011.89 1011.71 1011.24 1011.11 1011.13
1014.56 1014.88 1014.83 1015.23 1015.05 1015.01 1016.29 1017.21 1018.50 1020.32 1022.25 1022.19 1022.01 1021.80 1022.05 1021.86 1021.91 1021.65 1021.29 1020.68 1020.20 1019.65 1019.30 1018.98 1018.54 1018.03 1017.52 1016.95 1016.44 1016.23 1016.57 1017.04 1017.32 1017.21 1015.94 1014.69 1013.42 1013.16 1012.72 1012.42 1012.72 1012.63 1012.30 1012.02
1015.06 1015.21 1015.69 1015.58 1015.70 1016.06 1017.18 1017.58 1017.70 1019.63 1021.16 1021.79 1021.20 1021.68 1021.93 1022.47 1022.17 1021.99 1021.30 1020.55 1020.16 1020.13 1020.31 1020.52 1020.73 1020.13 1019.34 1018.30 1017.06 1016.68 1016.96 1017.51 1018.32 1018.22 1017.68 1016.27 1015.32 1013.84 1013.23 1012.85 1013.52 1013.64 1013.26 1012.92
1015.57 1015.96 1015.69 1015.76 1016.04 1016.36 1017.28 1018.53 1018.22 1019.48 1020.98 1021.08 1020.94 1021.42 1021.54 1021.90 1022.11 1022.28 1021.75 1021.22 1020.94 1021.04 1021.89 1022.31 1022.19 1021.50 1020.57 1019.95 1018.87 1018.03 1017.94 1018.30 1019.05 1019.32 1018.49 1016.99 1015.64 1014.32 1013.24 1013.64 1015.56 1014.44 1014.05 1013.91
1016.23 1016.42 1016.13 1016.11 1016.27 1016.99 1017.61 1018.66 1018.73 1019.37 1020.69 1020.90 1020.62 1020.57 1020.94 1021.40 1021.72 1022.02 1021.59 1021.84 1021.99 1022.32 1022.96 1023.60 1023.22 1022.57 1021.69 1020.97 1019.86 1019.29 1019.24 1019.43 1019.52 1019.17 1018.75 1017.56 1015.70 1014.35 1014.51 1015.49 1015.22 1014.97 1014.78 1014.75
1016.35 1016.58 1016.78 1016.75 1016.48 1016.91 1018.00 1019.35 1019.36 1018.68 1019.98 1020.83 1020.40 1020.13 1020.06 1020.15 1020.42 1020.96 1021.40 1021.90 1022.20 1022.61 1023.48 1024.20 1023.15 1022.86 1022.34 1021.80 1020.74 1019.46 1019.30 1019.36 1019.58 1019.55 1018.82 1017.45 1016.51 1016.19 1015.58 1015.48 1015.51 1015.53 1015.42 1015.42
1016.75 1017.24 1017.05 1017.23 1017.40 1017.43 1017.43 1019.43 1019.76 1019.70 1020.68 1020.86 1020.54 1019.77 1019.38 1019.42 1019.81 1019.99 1020.98 1021.48 1021.48 1022.08 1022.12 1022.99 1023.11 1022.98 1022.36 1021.65 1020.72 1019.89 1018.74 1018.53 1018.73 1018.78 1017.62 1016.96 1016.34 1015.94 1015.65 1015.53 1015.75 1015.94 1016.10 1016.27
1016.84 1017.65 1017.84 1017.64 1018.41 1017.97 1017.70 1019.18 1019.68 1020.16 1021.02 1021.28 1020.26 1019.43 1019.28 1018.84 1019.11 1019.57 1019.91 1020.44 1021.02 1021.45 1021.94 1022.50 1022.67 1022.41 1021.48 1020.95 1020.22 1019.69 1018.52 1018.22 1018.06 1017.85 1017.02 1016.57 1015.91 1015.67 1015.57 1015.64 1015.92 1016.22 1016.40 1016.54
1017.50 1017.46 1017.81 1018.49 1018.94 1018.35 1018.27 1019.25 1019.85 1020.01 1020.65 1021.43 1020.71 1019.69 1018.90 1018.60 1018.87 1019.33 1019.82 1020.39 1021.00 1021.62 1022.06 1022.31 1022.16 1021.39 1021.08 1020.32 1019.87 1018.73 1017.73 1017.41 1017.57 1017.16 1016.43 1016.34 1015.89 1015.55 1015.51 1015.92 1016.23 1016.43 1016.61 1016.71
1017.76 1017.53 1017.18 1018.86 1019.09 1018.55 1018.80 1019.98 1019.96 1019.86 1020.20 1021.14 1021.08 1020.09 1019.20 1018.54 1018.68 1019.20 1019.69 1020.15 1020.81 1021.08 1021.44 1021.42 1021.06 1020.37 1020.25 1019.99 1019.10 1017.20 1016.65 1016.47 1016.50 1016.33 1016.07 1015.84 1015.60 1015.63 1015.79 1016.11 1016.48 1016.78 1017.09 1017.25
1018.07 1017.40 1017.83 1018.91 1018.76 1019.02 1019.63 1020.03 1019.78 1019.70 1020.38 1021.21 1021.50 1020.48 1019.08 1018.63 1018.75 1019.28 1019.72 1019.93 1020.31 1020.63 1020.80 1020.73 1020.53 1020.01 1019.83 1019.28 1018.27 1016.50 1016.09 1015.90 1015.78 1015.77 1015.75 1015.85 1015.82 1015.85 1015.97 1016.19 1016.51 1016.71 1016.95 1017.04
1017.74 1017.85 1018.35 1018.54 1018.74 1019.21 1019.52 1019.27 1019.23 1019.89 1020.72 1021.35 1021.61 1020.88 1019.81 1018.81 1019.27 1019.85 1019.90 1020.15 1020.38 1020.39 1020.20 1020.29 1020.09 1019.66 1019.35 1018.46 1016.57 1016.11 1015.77 1015.57 1015.55 1015.54 1015.54 1015.62 1015.71 1015.93 1016.15 1016.33 1016.57 1016.81 1017.00 1017.08
1017.80 1017.98 1018.26 1019.09 1019.56 1019.75 1019.36 1018.90 1019.40 1020.05 1020.95 1021.54 1021.68 1021.21 1020.27 1019.21 1019.63 1020.06 1020.13 1020.21 1020.63 1020.32 1020.10 1019.76 1019.60 1018.88 1018.19 1016.44 1015.93 1015.74 1015.45 1015.40 1015.35 1015.46 1015.60 1015.78 1015.93 1016.13 1016.29 1016.52 1016.72 1016.94 1016.95 1016.92
1017.87 1018.31 1019.11 1019.90 1019.58 1019.05 1019.03 1019.57 1020.10 1020.34 1020.60 1021.15 1021.30 1020.81 1020.29 1019.88 1020.08 1020.21 1020.66 1020.67 1020.44 1020.26 1019.54 1019.30 1019.00 1017.71 1016.10 1015.53 1015.37 1015.25 1015.24 1015.23 1015.33 1015.55 1015.78 1015.91 1016.06 1016.21 1016.29 1016.52 1016.77 1016.95 1017.01 1016.94
1018.34 1019.09 1019.62 1019.72 1019.14 1019.25 1019.99 1020.69 1020.85 1020.68 1020.81 1020.64 1020.24 1020.28 1020.04 1019.68 1019.86 1020.12 1020.46 1020.60 1020.52 1020.42 1019.65 1019.51 1018.50 1017.28 1015.98 1015.42 1015.45 1015.38 1015.39 1015.38 1015.50 1015.60 1015.81 1015.98 1016.16 1016.30 1016.50 1016.65 1016.72 1016.80 1016.80 1016.79
1018.76 1019.04 1019.62 1019.65 1019.89 1020.50 1020.90 1020.73 1020.68 1020.64 1019.99 1019.59 1019.59 1019.48 1019.73 1019.54 1019.52 1019.87 1020.49 1020.42 1020.52 1020.04 1019.68 1019.63 1018.60 1016.52 1015.78 1015.61 1015.54 1015.54 1015.61 1015.71 1015.88 1015.96 1016.15 1016.31 1016.47 1016.64 1016.80 1016.92 1016.98 1016.98 1016.91 1016.80
1019.11 1019.45 1019.87 1020.25 1020.94 1021.14 1020.78 1020.28 1019.78 1019.56 1018.88 1018.73 1018.94 1019.42 1019.36 1019.63 1019.60 1019.96 1020.24 1020.36 1020.32 1019.74 1019.96 1019.24 1017.47 1016.19 1015.79 1015.72 1015.72 1015.83 1015.88 1015.97 1016.16 1016.36 1016.54 1016.71 1016.89 1016.98 1017.10 1017.25 1017.22 1017.17 1017.05 1016.80
1019.59 1019.89 1020.49 1020.53 1020.34 1019.79 1018.93 1018.61 1018.39 1018.03 1018.03 1018.32 1018.64 1019.17 1019.25 1019.42 1019.63 1020.06 1020.26 1019.97 1019.95 1019.93 1019.93 1018.39 1016.71 1015.71 1015.41 1015.48 1015.66 1015.95 1016.10 1016.26 1016.39 1016.49 1016.68 1016.89 1017.18 1017.28 1017.33 1017.48 1017.64 1017.54 1017.42 1017.16
1019.69 1019.72 1019.61 1019.14 1018.48 1018.34 1018.21 1018.16 1018.11 1017.74 1017.75 1018.08 1018.60 1018.92 1019.15 1019.49 1019.66 1019.80 1019.93 1020.06 1020.00 1019.37 1018.23 1017.15 1015.74 1015.19 1015.21 1015.43 1015.58 1015.74 1015.98 1016.23 1016.39 1016.48 1016.67 1016.86 1017.06 1017.27 1017.44 1017.65 1017.45 1017.43 1017.46 1017.26
1019.35 1018.78 1018.42 1018.18 1018.41 1018.36 1018.16 1017.92 1017.73 1017.33 1017.60 1017.88 1018.07 1018.82 1019.10 1019.35 1019.28 1019.71 1019.43 1019.44 1018.73 1017.70 1016.69 1015.73 1015.25 1014.97 1014.86 1014.94 1015.10 1015.43 1015.69 1015.95 1016.12 1016.27 1016.45 1016.72 1016.99 1017.22 1017.40 1017.40 1017.49 1017.44 1017.28 1017.25
1018.42 1017.73 1017.48 1017.67 1017.77 1017.63 1017.33 1017.11 1016.93 1016.83 1017.38 1017.71 1017.85 1018.33 1018.36 1018.79 1018.80 1018.80 1018.34 1017.89 1016.65 1016.05 1015.60 1015.10 1014.69 1014.49 1014.33 1014.48 1014.88 1015.07 1015.15 1015.34 1015.58 1015.91 1016.32 1016.61 1016.87 1017.07 1017.32 1017.43 1017.37 1017.08 1017.11 1017.03
Wind_Speed
20 18 15 12 12 16 6 4 5 4 3 7 2 3 4 3 3 0 2 3 4 4 3 5 5 6 1 11 12 16 6 5 8 20 14 5 10 11 10 6 6 1 6 3
18 16 13 12 17 9 5 5 3 3 5 5 3 2 2 1 3 4 4 3 1 3 3 4 6 9 4 11 13 4 7 4 10 15 7 6 9 18 19 13 3 5 3 4
18 15 13 12 13 10 6 5 4 5 5 1 5 2 3 4 4 3 2 4 3 4 10 4 10 15 9 16 13 16 3 4 6 8 13 16 13 18 15 10 4 9 8 8
16 14 12 11 12 10 6 4 2 2 1 3 4 3 2 4 4 3 3 3 2 3 6 10 6 7 12 8 11 3 4 5 7 14 15 6 15 20 19 16 14 9 11 7
15 12 9 8 11 10 6 7 6 3 3 2 5 3 1 2 3 1 4 3 8 4 5 8 15 7 7 8 7 10 2 5 7 8 7 10 12 19 19 20 17 10 10 11
15 12 9 6 5 6 4 1 3 7 2 3 5 4 3 2 3 3 7 6 8 8 9 7 14 14 14 15 11 6 3 3 5 7 17 11 10 23 14 17 20 16 15 10
16 14 12 11 9 6 5 3 5 5 1 3 4 3 0 2 1 4 6 5 3 7 10 13 6 5 10 9 11 9 3 3 1 5 9 8 7 12 10 9 17 16 13 14
15 14 13 12 14 14 5 2 5 4 4 3 1 1 3 4 4 3 4 5 5 8 6 5 6 6 6 5 4 6 4 3 4 3 3 4 3 13 11 9 10 15 14 10
15 15 12 13 13 12 5 2 3 5 8 4 5 4 2 2 2 5 4 4 5 6 3 4 5 4 4 5 11 4 4 3 5 4 3 4 2 18 14 8 10 13 13 12
15 15 15 14 12 10 5 2 3 5 5 1 5 3 5 4 2 2 4 6 6 4 4 4 3 3 3 5 7 7 6 4 4 2 1 4 5 16 8 6 5 10 7 7
14 14 15 14 13 9 5 1 3 4 3 2 5 4 4 2 2 3 4 5 5 4 6 4 3 2 3 3 4 4 4 4 3 3 5 6 11 11 7 4 5 4 5 6
14 13 12 13 13 10 5 3 3 1 5 5 2 4 5 7 8 3 2 3 3 4 5 1 0 2 3 2 4 3 4 3 2 2 6 5 4 4 6 2 3 5 5 6
13 11 12 11 10 10 8 3 1 5 3 4 3 5 4 3 7 6 4 2 3 1 4 4 0 4 3 1 4 3 2 1 1 3 5 5 5 4 3 4 4 3 3 3
13 10 9 9 7 8 8 4 1 4 3 3 6 2 4 3 5 6 5 3 3 4 2 2 2 2 4 3 3 3 5 3 1 4 6 5 7 6 5 2 3 2 3 4
11 10 8 6 5 8 6 3 1 2 6 4 4 6 4 3 6 7 5 4 3 2 1 2 3 2 1 2 0 4 4 4 3 5 4 3 6 1 4 4 1 2 4 6
9 8 9 4 4 8 5 4 1 3 3 4 3 4 3 2 4 5 5 4 3 3 4 4 3 4 3 2 3 5 4 3 6 4 3 5 4 4 3 4 2 1 2 1
7 8 6 2 6 4 4 5 3 6 3 3 4 5 4 2 2 1 2 2 2 3 2 3 3 3 4 2 4 5 5 4 3 3 2 1 3 3 3 3 1 0 2 2
7 6 4 2 5 4 3 2 6 4 4 3 1 4 4 0 1 1 0 2 1 1 2 0 3 1 2 4 8 5 4 3 2 1 0 3 2 4 3 2 1 3 4 4
6 5 4 5 3 2 3 3 10 2 5 2 2 3 4 3 0 0 2 2 0 0 2 3 4 2 5 8 6 6 6 4 3 2 3 3 3 5 5 4 4 4 6 4
4 5 4 4 2 4 5 5 3 2 1 2 3 1 3 2 1 2 2 1 2 1 4 2 3 5 6 5 5 4 5 5 5 3 3 3 4 5 4 5 3 3 5 5
3 3 2 3 2 3 3 1 1 2 3 3 4 5 2 2 3 3 2 2 1 1 4 2 3 4 4 3 3 2 1 4 3 3 2 3 1 2 2 4 5 5 6 6
4 4 2 2 3 3 2 3 2 4 5 3 4 5 5 2 2 3 1 1 1 5 0 3 4 5 2 4 4 3 5 6 5 3 3 3 4 4 4 5 5 6 6 7
3 3 3 3 2 2 6 6 4 3 4 4 3 2 4 0 1 2 2 2 5 1 3 4 6 3 3 4 4 4 4 5 4 2 2 3 3 5 3 5 5 6 6 7
2 4 1 5 4 6 6 4 4 4 3 4 3 2 3 2 3 2 3 3 1 3 1 6 4 5 6 6 4 5 6 5 4 3 2 1 2 3 4 3 3 3 5 7
2 3 6 7 5 3 3 3 1 2 2 3 3 3 2 1 3 2 1 2 4 6 6 5 4 3 5 5 5 6 6 5 4 3 3 2 1 1 3 3 3 5 5 6
3 5 3 2 2 4 1 2 3 3 3 2 2 3 3 3 3 3 6 3 7 6 4 4 2 3 6 7 6 6 5 6 5 5 3 3 3 0 3 4 4 5 3 5
5 5 2 3 2 4 3 4 4 3 4 3 3 4 8 2 1 3 5 7 5 5 4 3 5 6 7 5 6 7 8 7 6 4 5 4 3 0 2 3 4 5 5 4
Wind_Direction
139 144 147 156 153 137 76 85 67 308 18 56 31 96 186 282 287 215 297 224 234 257 322 299 291 255 264 309 315 324 306 295 301 310 282 280 330 319 305 283 323 344 121 76
139 141 144 148 144 147 113 91 116 318 76 97 349 291 340 347 329 337 353 299 296 314 322 321 269 288 280 309 317 311 329 347 313 330 355 331 331 322 320 302 314 356 104 119
138 137 137 131 155 147 86 93 78 348 48 100 119 83 11 350 316 284 237 271 305 340 312 241 282 291 308 325 309 312 292 290 249 293 286 292 318 339 356 346 346 340 43 101
135 134 130 130 134 132 92 45 215 173 161 337 95 86 11 336 357 341 337 329 271 327 297 304 265 299 315 294 286 350 3 271 274 287 294 339 18 6 9 4 355 22 66 64
125 125 127 130 124 114 83 129 134 37 105 109 89 48 211 263 310 265 296 229 296 285 216 217 294 319 316 281 309 333 314 279 309 292 305 340 30 23 10 16 357 16 31 39
122 117 101 100 115 101 115 190 58 102 307 103 97 201 163 231 0 271 240 287 308 294 262 241 266 267 269 260 287 309 271 301 343 294 330 329 22 2 19 14 28 23 39 36
115 101 87 72 69 135 121 166 100 92 157 126 171 147 62 270 250 249 286 294 246 260 308 297 276 249 250 249 267 221 284 319 350 294 340 39 333 348 353 25 30 26 43 43
111 100 83 72 60 62 74 101 97 116 112 143 112 177 225 317 285 279 262 267 240 309 317 6 1 349 359 327 343 9 203 42 347 26 347 272 357 351 345 350 25 12 18 25
112 105 100 80 76 74 62 33 113 98 122 245 111 126 139 223 281 327 258 302 313 357 48 54 29 15 313 329 327 77 86 60 110 357 48 1 257 331 332 304 35 355 351 15
115 113 101 91 87 80 104 17 30 89 100 228 126 162 168 170 163 216 306 332 343 25 19 60 43 323 325 358 334 333 334 352 77 17 325 296 305 316 303 44 355 332 0 5
112 103 101 98 83 67 74 134 355 117 102 255 168 175 155 132 128 150 267 38 346 21 56 83 295 356 279 328 281 313 341 346 336 342 33 339 355 342 68 217 296 323 349 8
112 104 95 89 89 84 80 68 326 35 88 214 218 216 219 190 183 155 354 181 180 194 82 332 331 323 3 320 304 321 14 163 321 156 227 258 302 274 293 249 333 342 347 9
103 97 95 95 92 81 94 117 190 56 52 326 20 232 259 153 200 171 128 291 166 191 179 162 131 259 136 250 263 286 259 159 192 46 273 266 287 313 14 27 3 9 20 10
101 97 91 87 88 89 88 101 131 86 114 96 285 329 272 211 161 178 179 151 67 90 108 133 179 235 190 234 242 204 216 352 226 264 283 296 278 241 243 13 33 353 359 20
109 105 88 79 79 85 82 76 198 154 115 189 276 305 258 228 166 186 166 159 127 144 90 130 237 230 147 236 343 250 186 206 169 230 255 216 273 302 143 153 228 321 360 351
106 96 88 85 93 89 68 31 296 179 125 86 336 291 280 334 161 182 192 167 155 151 164 214 252 255 165 242 247 257 221 204 199 253 305 226 261 182 140 144 158 181 159 223
88 80 82 93 110 76 111 180 224 144 90 81 325 316 282 294 117 78 112 105 171 157 206 220 212 266 172 229 234 244 224 251 263 248 256 311 228 239 132 128 168 0 289 307
83 75 70 67 64 52 355 283 204 108 95 83 133 275 339 18 212 235 3 123 81 235 212 115 203 286 168 255 243 247 229 235 257 261 281 222 120 120 165 184 228 273 289 286
70 55 86 59 51 62 243 163 111 111 129 170 179 187 238 353 96 68 32 81 6 223 220 238 131 201 222 229 233 207 213 197 214 174 139 159 202 221 235 240 289 286 301 302
75 70 61 2 246 216 116 21 51 359 324 74 214 148 258 118 25 322 70 32 218 240 240 111 202 250 243 231 220 200 199 224 168 173 256 241 262 246 260 237 238 246 277 288
54 84 117 240 48 57 45 74 129 192 247 209 226 185 209 260 121 211 165 205 235 7 263 173 260 274 255 179 167 199 205 146 109 95 79 70 340 299 255 261 258 271 273 262
154 134 96 67 51 46 138 219 171 209 233 203 177 199 195 253 116 107 245 199 59 246 63 67 279 256 263 171 169 143 147 128 105 95 91 24 358 336 305 295 293 290 291 291
56 52 76 79 291 180 192 205 210 226 205 194 171 178 163 76 77 65 107 104 236 41 39 232 231 254 215 193 164 140 126 132 138 118 60 11 339 334 330 317 312 316 309 303
118 140 238 176 222 226 197 191 194 226 150 155 141 97 156 197 89 149 118 242 35 339 298 240 251 228 211 192 186 153 194 185 176 184 185 269 320 306 325 353 314 322 332 315
190 194 228 216 221 234 225 209 306 237 161 122 84 46 104 343 82 200 99 17 258 211 230 230 242 230 189 193 201 206 196 188 208 197 221 249 258 312 310 312 336 348 324 327
239 235 250 230 87 283 306 186 236 188 150 88 72 122 72 234 165 147 212 205 222 243 218 230 223 210 206 214 206 201 199 198 207 203 201 183 158 301 325 336 345 318 304 324
226 238 202 178 224 214 209 172 212 139 122 183 126 131 205 87 146 245 196 211 216 218 240 224 217 219 226 216 192 201 201 202 200 191 194 187 161 97 348 338 330 322 1 324